Location: Noverd
(38.0910°N, 121.6877°W)
Time: 02:36:58
(UTC+00:00)

Meteor 2-21 Rocket - Pass Details

Date: 13 February 2026
Orbit: 934 x 968 km, 82.6° (Epoch: 13 March)

Event Time Altitude Azimuth Distance (km) Brightness Sun altitude
Rises 12:45:41 0° 350° (N) 3,636 7.4 -26.8°
Reaches altitude 10° 12:48:12 10° 348° (NNW) 2,681 6.7 -26.3°
Maximum altitude 12:54:17 70° 266° (W) 1,000 4.3 -25.1°
Drops below altitude 10° 13:00:17 10° 184° (S) 2,643 6.7 -23.9°
Sets 13:02:45 0° 182° (S) 3,581 7.4 -23.4°
